Weather Service Report


177 
ASUS41 KCTP 270410
RWRCTP

REGIONAL WEATHER ROUNDUP
NATIONAL WEATHER SERVICE STATE COLLEGE PA
1100 PM EST SUN FEB 26 2017

Note: "fair" indicates few or no clouds below 12,000 feet with no 
significant weather and/or obstructions to visibility.

* = STATION THAT DOES NOT REPORT PRECIPITATION /E.G. RAIN...SNOW...ETC/
    THUNDER OR FOG.

PAZ002>004-007>009-013>016-020>023-029>032-270500-
WESTERN PENNSYLVANIA
  
CITY           SKY/WX    TMP DP  RH WIND       PRES   REMARKS
ERIE           FAIR      38  18  44 S22       30.12S                  
MEADVILLE      FAIR      32  16  51 S8        30.13S                  
FRANKLIN*      FAIR      30  14  51 SW10      30.16S                  
NEW CASTLE     MOCLDY    30  19  63 CALM      30.19R                  
BEAVER COUNTY  NOT AVBL                                               
BUTLER*        FAIR      34  14  44 S8        30.19R                  
PITTSBURGH INT FAIR      33  15  47 S5        30.19R                  
PITTSBURGH     FAIR      33  11  39 S8        30.20R                  
INDIANA*       CLEAR     30  16  55 SW6       30.22S                  
LATROBE        FAIR      28  16  59 SW3       30.22S                  
WASHINGTON CO* FAIR      25  16  68 CALM      30.22S                  
$$

PAZ004>006-010>012-017>019-024>028-033>037-041-042-045-046-049>053-270500-
CENTRAL PENNSYLVANIA
  
CITY           SKY/WX    TMP DP  RH WIND       PRES   REMARKS
BRADFORD       FAIR      29  15  56 SW9       30.11R                  
DUBOIS         FAIR      30  13  49 SW13      30.14R                  
CLEARFIELD       N/A    N/A N/A N/A MISG      30.18R                  
JOHNSTOWN      FAIR      30  11  45 SW8       30.16S                  
ALTOONA        FAIR      28  16  60 SW9       30.21R                  
STATE COLLEGE  FAIR      29  16  58 W3        30.19S                  
WILLIAMSPORT   FAIR      27  19  72 CALM      30.22S                  
SELINSGROVE    FAIR      25  20  81 CALM      30.25F                  
FT INDIANTOWN  FAIR      26  20  79 CALM      30.25S                  
CAPITAL CITY   FAIR      28  19  69 W3        30.27R                  
HARRISBURG     FAIR      30  22  72 CALM      30.26S                  
YORK           FAIR      24  21  88 CALM      30.26S                  
$$

PAZ038>040-043-044-047-048-054-055-060>062-067>071-270500-
EASTERN PENNSYLVANIA
  
CITY           SKY/WX    TMP DP  RH WIND       PRES   REMARKS
SCRANTON       FAIR      31  16  54 VRB5      30.20R                  
MOUNT POCONO   FAIR      25  14  63 W13       30.15R WCI  14          
ALLENTOWN      FAIR      29  16  58 SW5       30.26R                  
QUAKERTOWN*    FAIR      25  21  86 CALM      30.27R                  
READING        FAIR      30  21  69 CALM      30.26S                  
LANCASTER      FAIR      28  21  75 CALM      30.27S                  
COATESVILLE    FAIR      30  18  59 CALM      30.27S                  
POTTSTOWN      FAIR      28  17  63 CALM      30.28S                  
BLUE BELL      FAIR      30  21  69 CALM      30.27R                  
DOYLESTOWN     FAIR      32  17  54 SW3       30.26R                  
WILLOW GROVE   NOT AVBL                                               
NORTH PHILA    FAIR      33  19  56 W6        30.30R                  
PHILADELPHIA   FAIR      37  17  44 W7        30.30R                  
$$
  

Return to Home page


Western Regional Climate Center, wrcc@dri.edu